Location: El Atico
(3.0014°N, 75.4378°W)
Time: 11:42:54
(UTC+00:00)

USA 81 - Pass Details

Date: 09 December 2025
Orbit: 782 x 785 km, 85.0° (Epoch: 25 January)

Event Time Altitude Azimuth Distance (km) Brightness Sun altitude
Rises 23:44:15 0° 1° (N) 3,259 7.0 -12.6°
Reaches altitude 10° 23:46:36 10° 3° (N) 2,332 6.3 -13.2°
Maximum altitude 23:51:50 77° 89° (E) 804 3.9 -14.4°
Drops below altitude 10° 23:57:04 10° 175° (S) 2,337 6.7 -15.6°
Sets 23:59:26 0° 176° (S) 3,266 7.5 -16.1°
